Total_Precipitation_Accumulation
1.40 1.46 1.39 1.40 1.45 1.45 1.43 1.47 1.53 1.57 1.64 1.63 1.64 1.65 1.65 1.72 1.78 1.88 1.99 2.13 2.14 2.17 2.08 2.12 2.24 2.32 2.51 2.53 2.49 2.48 2.48 2.40 2.25 2.12 1.85 1.64 1.62 1.72 1.79 1.66 1.69 1.75 1.67
1.48 1.42 1.37 1.48 1.54 1.62 1.61 1.54 1.54 1.53 1.49 1.52 1.61 1.55 1.53 1.58 1.66 1.78 1.87 1.90 1.95 1.90 1.83 1.88 2.01 2.08 2.22 2.33 2.42 2.33 2.37 2.35 2.32 2.26 2.03 1.82 1.72 1.73 1.82 1.77 1.64 1.63 1.64
1.48 1.51 1.41 1.34 1.43 1.52 1.59 1.55 1.50 1.49 1.48 1.52 1.61 1.67 1.56 1.47 1.55 1.62 1.70 1.73 1.72 1.62 1.60 1.68 1.76 1.85 1.95 2.05 2.13 2.20 2.25 2.24 2.33 2.30 2.10 1.91 1.75 1.70 1.75 1.69 1.62 1.69 1.59
1.51 1.49 1.48 1.45 1.52 1.50 1.46 1.42 1.42 1.41 1.35 1.35 1.45 1.53 1.55 1.48 1.41 1.39 1.40 1.57 1.59 1.51 1.40 1.39 1.43 1.47 1.60 1.74 1.82 1.95 2.11 2.26 2.35 2.36 2.20 1.96 1.78 1.73 1.80 1.85 1.82 1.71 1.70
1.54 1.54 1.47 1.44 1.43 1.46 1.45 1.32 1.26 1.19 1.18 1.22 1.36 1.50 1.55 1.51 1.51 1.49 1.38 1.41 1.48 1.52 1.47 1.35 1.25 1.26 1.41 1.52 1.57 1.78 1.98 2.14 2.27 2.33 2.23 2.05 1.89 1.82 1.77 1.76 1.84 1.91 1.90
1.31 1.37 1.47 1.47 1.34 1.28 1.29 1.28 1.18 1.11 1.08 1.07 1.15 1.28 1.41 1.38 1.59 1.63 1.51 1.37 1.37 1.39 1.40 1.38 1.39 1.36 1.24 1.22 1.31 1.46 1.67 1.85 2.01 2.12 2.14 1.96 1.78 1.76 1.84 1.85 1.84 1.90 1.93
1.20 1.25 1.31 1.34 1.25 1.19 1.12 1.08 1.06 1.02 1.07 1.06 1.12 1.23 1.35 1.54 1.66 1.48 1.54 1.46 1.39 1.39 1.35 1.35 1.38 1.36 1.43 1.28 1.26 1.27 1.26 1.42 1.67 1.88 1.90 1.80 1.84 1.79 1.79 1.76 1.73 1.71 1.73
1.07 1.12 1.10 1.11 1.11 1.11 1.00 0.98 0.98 1.00 1.06 1.08 1.14 1.21 1.28 1.50 1.61 1.44 1.62 1.62 1.57 1.50 1.44 1.48 1.53 1.54 1.47 1.59 1.55 1.43 1.30 1.26 1.37 1.31 1.37 1.67 1.82 1.89 1.91 1.92 1.95 1.84 1.75
0.89 0.94 0.96 0.97 0.99 1.00 0.95 1.05 1.07 1.04 1.05 1.07 1.07 1.08 1.10 1.20 1.36 1.30 1.45 1.54 1.63 1.61 1.47 1.44 1.49 1.50 1.76 1.87 1.68 1.58 1.46 1.36 1.55 1.58 1.56 1.65 1.77 1.81 1.81 1.86 1.92 1.87 1.77
0.78 0.82 0.89 0.92 0.96 1.03 1.16 1.27 1.28 1.21 1.10 1.03 1.00 0.97 0.98 1.01 1.23 1.14 1.26 1.30 1.46 1.60 1.56 1.49 1.66 1.59 1.67 1.68 1.56 1.70 1.60 1.43 1.36 1.34 1.33 1.40 1.44 1.54 1.64 1.61 1.74 1.78 1.68
0.59 0.70 0.84 0.96 1.01 1.14 1.31 1.33 1.28 1.21 1.08 0.98 0.95 0.94 0.93 1.00 1.23 1.22 1.29 1.30 1.38 1.46 1.49 1.48 1.45 1.62 1.48 1.48 1.50 1.56 1.69 1.65 1.59 1.60 1.50 1.40 1.36 1.37 1.38 1.43 1.57 1.66 1.66
0.54 0.58 0.69 0.86 0.98 1.14 1.30 1.29 1.27 1.24 1.14 1.01 0.99 0.98 0.99 1.10 1.17 1.22 1.27 1.33 1.40 1.39 1.33 1.20 1.22 1.38 1.28 1.27 1.27 1.37 1.58 1.62 1.55 1.60 1.55 1.44 1.33 1.27 1.26 1.31 1.44 1.52 1.52
0.51 0.50 0.54 0.65 0.80 0.99 1.13 1.15 1.16 1.18 1.13 1.06 1.00 0.97 0.99 1.05 1.19 1.38 1.29 1.20 1.18 1.17 1.15 1.19 1.14 1.12 1.11 1.04 1.09 1.25 1.34 1.49 1.56 1.56 1.43 1.31 1.28 1.29 1.31 1.32 1.33 1.42 1.46
0.47 0.50 0.51 0.53 0.58 0.68 0.79 0.91 0.99 1.01 0.99 0.99 0.98 0.97 1.00 1.00 1.00 1.12 1.19 1.13 1.05 1.01 0.99 0.94 0.95 0.96 0.97 0.95 0.96 0.99 1.08 1.36 1.58 1.52 1.40 1.32 1.32 1.37 1.43 1.46 1.43 1.38 1.44
0.49 0.54 0.56 0.58 0.60 0.61 0.63 0.69 0.78 0.81 0.90 0.98 0.97 0.97 0.96 0.95 0.98 1.11 1.12 1.08 1.11 1.14 1.16 1.06 1.01 0.96 0.94 0.94 0.94 1.00 1.15 1.30 1.47 1.41 1.42 1.38 1.39 1.45 1.47 1.51 1.59 1.56 1.49
0.46 0.47 0.48 0.51 0.57 0.58 0.61 0.64 0.73 0.74 0.81 0.83 0.83 0.83 0.78 0.85 0.96 0.97 0.98 1.02 1.08 1.20 1.24 1.18 1.20 1.16 1.12 1.10 1.06 1.03 1.06 1.16 1.26 1.35 1.38 1.41 1.43 1.47 1.48 1.50 1.56 1.58 1.54
0.46 0.45 0.45 0.46 0.52 0.58 0.59 0.64 0.67 0.66 0.65 0.65 0.68 0.73 0.70 0.70 0.70 0.72 0.81 0.93 1.01 1.13 1.15 1.14 1.17 1.16 1.12 1.11 1.09 1.06 1.07 1.10 1.18 1.28 1.42 1.50 1.52 1.55 1.60 1.61 1.60 1.60 1.52
0.51 0.54 0.53 0.53 0.56 0.58 0.63 0.68 0.67 0.66 0.62 0.54 0.54 0.59 0.62 0.65 0.66 0.66 0.68 0.74 0.78 0.88 0.96 1.05 1.10 1.13 1.12 1.10 1.07 1.04 1.03 1.05 1.12 1.18 1.30 1.42 1.58 1.70 1.72 1.72 1.73 1.74 1.69
0.51 0.53 0.56 0.59 0.60 0.61 0.64 0.70 0.73 0.69 0.61 0.56 0.52 0.54 0.60 0.63 0.66 0.70 0.70 0.64 0.64 0.69 0.76 0.88 0.96 1.00 1.00 1.03 1.06 1.10 1.11 1.10 1.10 1.14 1.18 1.23 1.35 1.53 1.67 1.72 1.78 1.93 1.91
0.48 0.56 0.58 0.60 0.63 0.66 0.66 0.66 0.67 0.69 0.66 0.61 0.57 0.56 0.60 0.62 0.59 0.58 0.61 0.64 0.69 0.73 0.76 0.82 0.88 0.94 1.00 1.03 1.06 1.08 1.09 1.08 1.09 1.13 1.15 1.19 1.25 1.34 1.44 1.53 1.61 1.74 1.82
0.51 0.54 0.58 0.57 0.57 0.62 0.63 0.62 0.63 0.63 0.62 0.58 0.56 0.57 0.62 0.62 0.63 0.61 0.61 0.63 0.68 0.72 0.74 0.77 0.79 0.86 0.91 1.00 1.13 1.20 1.17 1.13 1.13 1.17 1.24 1.27 1.29 1.34 1.35 1.41 1.46 1.54 1.64
0.57 0.56 0.52 0.52 0.54 0.57 0.60 0.60 0.60 0.62 0.61 0.57 0.54 0.54 0.60 0.59 0.59 0.59 0.59 0.58 0.59 0.64 0.69 0.72 0.71 0.70 0.76 0.85 1.01 1.20 1.27 1.21 1.16 1.21 1.29 1.34 1.36 1.37 1.39 1.44 1.49 1.56 1.58
0.53 0.56 0.57 0.58 0.58 0.61 0.64 0.62 0.60 0.59 0.60 0.58 0.59 0.57 0.56 0.54 0.54 0.53 0.55 0.56 0.56 0.58 0.64 0.68 0.67 0.67 0.68 0.74 0.86 1.03 1.15 1.24 1.30 1.35 1.40 1.42 1.41 1.41 1.44 1.46 1.45 1.54 1.58
0.50 0.48 0.52 0.57 0.61 0.66 0.66 0.67 0.66 0.62 0.62 0.62 0.60 0.59 0.58 0.57 0.54 0.51 0.51 0.54 0.57 0.58 0.61 0.65 0.67 0.68 0.72 0.74 0.75 0.82 0.91 1.00 1.10 1.20 1.30 1.40 1.42 1.41 1.46 1.48 1.46 1.48 1.56
0.50 0.49 0.52 0.58 0.59 0.61 0.64 0.69 0.76 0.75 0.71 0.65 0.61 0.59 0.58 0.57 0.58 0.56 0.55 0.57 0.61 0.63 0.61 0.60 0.62 0.66 0.72 0.75 0.75 0.80 1.00 1.07 1.06 1.08 1.17 1.30 1.37 1.40 1.46 1.53 1.59 1.62 1.62
0.51 0.51 0.52 0.56 0.58 0.59 0.63 0.69 0.75 0.78 0.76 0.71 0.68 0.67 0.67 0.63 0.63 0.63 0.62 0.64 0.67 0.67 0.67 0.67 0.67 0.68 0.72 0.76 0.79 0.90 1.02 1.00 1.02 1.12 1.15 1.21 1.30 1.34 1.42 1.55 1.61 1.68 1.74